Meteo Giornale » Osservazioni meteo Filippine » Angeles-Pampanga
ore: 03:00 - Osservazioni Meteo Angeles-Pampanga
Lat. 15° 10' N Lon. 120° 35' E Alt. 196 metri s.l.m.
26 °C
Pioggia
Temp. 24 Ore
25 °C
31 °C
Sud
7.4 Km/h
Dew point 25 °C
Umidità 94 %
Visibilità 7 Km
Il sole sorge alle ore 05:45
Il sole tramonta alle ore 18:09
| Data e Ora | Cielo e Fenomeni | T °C | DP °C | Um. % | Pres. hPa | Vis. km | Vento km/h | |
|---|---|---|---|---|---|---|---|---|
| Oggi h: 03:00 | Pioggia | 26 | 25 | 94 | 1008 | 7 | S 7.4 | |
| Oggi h: 02:00 | Molto Nuvoloso | 26 | 25 | 94 | 1008 | 8 | S 14.8 | |
| Oggi h: 01:00 | Nuvoloso | 26 | 24 | 88 | 1008 | 8 | S 11.1 | |
| Oggi h: 00:00 | Nuvoloso | 26 | 24 | 88 | 1009 | 8 | S/SE 13 | |
| Ieri h: 23:00 | Nuvoloso | 27 | 25 | 88 | 1009 | 8 | S/SE 13 | |
| Ieri h: 22:00 | Poco Nuvoloso | 27 | 24 | 83 | 1010 | 8 | S 11.1 | |
| Ieri h: 21:00 | Nuvoloso | 27 | 24 | 83 | 1010 | 8 | S/SE 11.1 | |
| Ieri h: 20:00 | Molto Nuvoloso | 27 | 24 | 83 | 1009 | 8 | N 3.7 | |
| Ieri h: 19:00 | Molto Nuvoloso | 28 | 24 | 78 | 1009 | 8 | N 3.7 | |
| Ieri h: 18:00 | Coperto | 29 | 25 | 79 | 1008 | 8 | S 7.4 | |
| Ieri h: 17:00 | Molto Nuvoloso | 29 | 25 | 79 | 1008 | 8 | S 14.8 | |
| Ieri h: 16:00 | Molto Nuvoloso | 30 | 24 | 70 | 1007 | 8 | S 18.5 | |
| Ieri h: 15:00 | Molto Nuvoloso | 31 | 24 | 66 | 1007 | 8 | S 14.8 | |
| Ieri h: 14:00 | Molto Nuvoloso | 30 | 25 | 74 | 1008 | 8 | S 14.8 | |
| Ieri h: 13:00 | Coperto | 31 | 24 | 66 | 1008 | 7 | S 16.7 | |
| Ieri h: 12:33 | Pioggia | 31 | 24 | 66 | 1008 | 7 | S 25.9 | |
| Ieri h: 12:00 | Molto Nuvoloso | 31 | 24 | 66 | 1009 | 8 | S 25.9 | |
| Ieri h: 11:00 | Molto Nuvoloso | 30 | 25 | 74 | 1009 | 8 | S 22.2 | |
| Ieri h: 10:00 | Molto Nuvoloso | 30 | 25 | 74 | 1009 | 7 | S 25.9 | |
| Ieri h: 09:00 | Molto Nuvoloso | 29 | 25 | 79 | 1010 | 6 | S 18.5 | |
| Ieri h: 08:35 | Pioggia Foschia | 27 | 25 | 88 | 1009 | 4 | S 18.5 | |
| Ieri h: 08:00 | Coperto | 28 | 25 | 83 | 1009 | 6 | S 18.5 | |
| Ieri h: 07:00 | Coperto | 26 | 25 | 94 | 1008 | 6 | S 18.5 | |
| Ieri h: 06:00 | Poco Nuvoloso | 25 | 24 | 94 | 1008 | 7 | NE 7.4 | |
| Ieri h: 05:00 | Poco Nuvoloso | 25 | 24 | 94 | 1008 | 7 | S 13 | |
| Ieri h: 04:00 | Nuvoloso | 26 | 24 | 88 | 1008 | 7 | S 11.1 | |



